Kuchera_Ratio
0.0 0.0 0.0 0.0 0.0 0.0 0.0 0.0 0.0 0.0 0.0 0.0 0.0 0.0 0.0 0.0 0.0 0.0 0.0 0.0 0.0 0.0
0.0 0.0 0.0 0.0 0.0 0.0 0.0 0.0 0.0 0.0 0.0 0.0 0.0 0.0 0.0 0.0 0.0 0.0 0.0 0.0 0.0 0.0
0.0 0.0 0.0 0.0 0.0 0.0 0.0 0.0 0.0 0.0 0.0 0.0 0.0 0.0 0.0 0.0 0.0 0.0 0.0 0.0 0.0 0.0
0.0 0.0 0.0 0.0 0.0 0.0 0.0 0.0 0.0 0.0 0.0 0.0 0.0 0.0 0.0 0.0 0.0 0.0 0.0 0.0 0.4 1.4
0.0 0.0 0.0 0.0 0.0 0.0 0.0 0.0 0.0 0.0 0.0 0.0 0.0 0.0 0.0 0.4 0.2 1.6 2.4 2.4 2.4 2.8
0.0 0.0 0.0 0.0 0.0 0.0 0.0 0.0 0.0 0.0 0.0 0.4 1.2 0.8 0.4 1.0 1.6 2.0 2.8 3.2 4.0 4.4
0.0 0.0 0.0 0.0 0.0 0.0 0.0 0.0 0.0 0.4 1.0 1.8 2.0 1.2 1.6 1.4 2.0 2.6 3.0 3.8 4.4 4.6
0.0 0.0 0.0 0.0 0.0 0.0 0.2 0.6 0.6 1.4 1.6 2.0 2.2 1.6 3.0 2.0 2.2 3.4 4.4 4.2 4.0 4.4
0.0 0.0 0.0 0.0 0.0 0.4 1.0 1.4 2.0 2.6 3.2 3.4 2.8 7.8 6.8 5.4 3.6 3.6 4.8 5.6 4.2 3.6
0.0 0.0 0.2 0.2 0.6 1.8 2.4 2.2 3.0 3.4 3.6 4.2 4.0 8.2 7.6 7.8 4.0 4.2 4.8 5.2 5.4 5.6
0.0 0.0 1.0 1.2 1.8 3.0 2.4 3.4 3.4 4.4 4.2 4.6 4.6 8.8 8.8 9.0 3.8 4.2 4.6 5.2 5.6 6.2
0.0 0.8 2.2 2.8 3.4 3.2 3.6 3.8 4.4 4.4 5.4 6.0 5.4 9.0 10.0 8.4 5.0 5.4 6.2 5.6 5.2 7.0
0.2 1.4 3.2 3.6 4.4 4.0 4.2 4.2 4.6 6.0 5.6 8.6 6.8 8.8 10.6 9.0 6.6 9.2 9.4 7.4 6.8 9.8
1.4 2.8 3.0 4.0 4.0 4.6 5.0 6.0 7.8 8.6 7.8 7.0 7.8 8.2 10.8 10.6 8.8 11.2 11.8 11.4 11.4 10.2